Location: Kerentrech
(47.7567°N, 3.3595°W)
Time: 16:41:55
(UTC+00:00)

Cosmos 2016 Rocket - Pass Details

Date: 17 February 2020
Orbit: 948 x 999 km, 83.0° (Epoch: 29 March)

Event Time Altitude Azimuth Distance (km) Brightness Sun altitude
Rises 05:56:12 0° 351° (N) 3,663 6.9 -14.2°
Reaches altitude 10° 05:58:42 10° 352° (N) 2,719 6.2 -13.8°
Maximum altitude 06:04:57 85° 80° (E) 988 4.1 -12.7°
Drops below altitude 10° 06:11:15 10° 171° (S) 2,737 6.5 -11.7°
Sets 06:13:46 0° 172° (S) 3,687 7.2 -11.3°
